[[{"header":{"parameterUnit":"m.s-1","parameterCategory":1,"la1":30.2991,"la2":30.254,"lo1":-89.0895,"lo2":-89.0444,"dy":0.0017,"dx":0.0017,"nx":28,"ny":28,"refTime":"2025-03-28T21:00:00:Z","depth":0,"parameterNumber":2,"parameterNumberName":"U-component_of_WINDS"},"data":[0,0,0,0,0,0,0,0,0,0,0,0,0,0,0,0,0,0,0,0,0,0,0,0,0,0,0,0,0,0,0,0,0,0,0,0,0,0,0,0,0,0,0,0,0,0,0,0,0,0,0,0,0,0,0,0,0,0,-6.6799,-6.6801,0,-6.6979,-6.6981,-6.6983,-6.6993,-6.6991,-6.6989,-6.6987,-6.7169,-6.7175,-6.7182,0,0,0,0,0,0,0,0,0,0,0,0,0,-6.6464,-6.647,-6.6799,-6.6801,-6.6803,-6.6978,-6.6981,-6.6983,-6.6994,-6.6991,-6.6989,-6.6986,-6.7166,-6.7174,-6.7182,0,0,0,0,0,0,0,0,0,0,0,0,0,-6.6623,-6.6472,-6.6798,-6.683,-6.6834,-6.6978,-6.6981,-6.6984,-6.6994,-6.6991,-6.6988,-6.6985,-6.7164,-6.7174,-6.7184,-6.7307,0,0,-6.7214,-6.7219,0,0,0,0,0,0,0,0,-6.6614,-6.6635,-6.6823,-6.6828,-6.6833,-6.696,-6.6929,-6.7092,-6.6995,-6.6933,-6.6987,-6.6984,-6.7102,-6.7117,-6.7157,-6.7316,-6.7324,-6.7215,-6.7222,-6.7226,-6.7229,0,0,0,0,0,0,0,-6.6603,-6.6628,-6.687,-6.6825,-6.6832,-6.6835,-6.6854,-6.696,-6.7032,-6.6938,-6.694,-6.6961,-6.7104,-6.7147,-6.7161,-6.7326,-6.7215,-6.7224,-6.723,-6.7234,-6.7597,-6.7601,0,0,0,0,0,0,-6.6586,-6.6619,-6.6864,-6.6875,-6.6714,-6.6843,-6.6865,-6.6923,-6.7031,-6.7045,-6.6963,-6.6961,-6.7132,-6.715,-6.7168,-6.732,-6.7226,-6.7235,-6.7241,-6.7594,-6.7598,-6.7602,0,0,0,0,0,0,-6.6579,-6.6608,-6.6857,-6.6747,-6.6779,-6.6852,-6.6917,-6.6928,-6.6971,-6.705,-6.7063,-6.6994,-6.713,-6.7154,-6.7273,-6.7326,-6.724,-6.7249,-6.759,-6.7595,-6.76,-6.7624,0,0,0,0,0,0,-6.6569,-6.6605,-6.6653,-6.6748,-6.6785,-6.6959,-6.6921,-6.6933,-6.6989,-6.6987,-6.7083,-6.7095,-6.7129,-6.7258,-6.7283,-6.7338,-6.7257,-6.7585,-6.7592,-6.7598,-6.7619,-6.763,-6.7639,0,0,0,0,0,-6.6557,-6.6652,-6.6655,-6.6685,-6.6846,-6.6962,-6.6983,-6.702,-6.6993,-6.7041,-6.7093,-6.7092,-6.7317,-6.727,-6.7299,-6.7358,-6.7582,-6.759,-6.7598,-6.7614,-6.7628,-6.7639,0,0,0,0,0,0,-6.6558,-6.6664,-6.6669,-6.6798,-6.6871,-6.6963,-6.7025,-6.7033,-6.7115,-6.7109,-6.7153,-6.7174,-6.7292,-6.7338,-6.7283,-6.7484,-6.7446,-6.746,-6.7449,-6.7463,-6.7472,-6.7457,-6.7265,0,0,0,0,0,-6.6574,-6.666,-6.6748,-6.6852,-6.6889,-6.6951,-6.7003,-6.7026,-6.7103,-6.7134,-6.7194,-6.7268,-6.7356,-6.7412,-6.7497,-6.7627,-6.7648,-6.7682,-6.7692,-6.77,-6.7711,-6.7783,-6.7799,-6.7628,-6.7628,-6.7628,0,0,-6.6606,-6.6675,-6.6726,-6.6854,-6.6914,-6.7001,-6.6977,-6.707,-6.7135,-6.7148,-6.7264,-6.7311,-6.7398,-6.7523,-6.7581,-6.7564,-6.7763,-6.771,-6.7716,-6.7723,-6.7793,-6.7809,-6.7824,-6.7634,-6.7633,-6.7632,0,0,-6.6708,-6.677,-6.6863,-6.6925,-6.7016,-6.7057,-6.708,-6.7173,-6.7205,-6.7323,-6.7334,-6.7413,-6.7563,-6.7624,-6.7675,-6.7806,-6.7808,-6.7832,-6.7883,-6.7953,-6.7967,-6.7979,-6.8024,-6.804,-6.7843,-6.7843,-6.7844,0,-6.6736,-6.6868,-6.691,-6.7004,-6.706,-6.7079,-6.7174,-6.7231,-6.7345,-6.7383,-6.7364,-6.7554,-6.7613,-6.7753,-6.7785,-6.7827,-6.7853,-6.7819,-6.7962,-6.7974,-6.7986,-6.803,-6.8047,-6.7846,-6.7845,-6.7845,-6.7845,0,-6.6898,-6.699,-6.7055,-6.7166,-6.723,-6.7324,-6.738,-6.7441,-6.746,-6.7503,-6.7624,-6.7697,-6.7797,-6.7833,-6.7852,-6.7977,-6.7964,-6.7953,-6.7915,-6.8004,-6.8045,-6.8063,-6.7849,-6.7848,-6.7847,-6.7847,0,0,-6.7001,-6.7137,-6.716,-6.7211,-6.7315,-6.7387,-6.7483,-6.7583,-6.7633,-6.7713,-6.7794,-6.7922,-6.7914,-6.7971,-6.7998,-6.806,-6.8158,-6.8042,-6.8044,-6.8059,-6.83,-6.8305,-6.8323,-6.8163,-6.8166,-6.8169,-6.8292,0,-6.7113,-6.7284,-6.7326,-6.7472,-6.7558,-6.7579,-6.7663,-6.7736,-6.778,-6.786,-6.7909,-6.7999,-6.7981,-6.8016,-6.8079,-6.8133,-6.8206,-6.8125,-6.8237,-6.824,-6.8211,-6.8346,-6.8351,-6.8463,-6.8308,-6.8311,-6.8313,0,-6.7265,-6.735,-6.7504,-6.7599,-6.7637,-6.7711,-6.7807,-6.7883,-6.7967,-6.7995,-6.8062,-6.8083,-6.8185,-6.8145,-6.8285,-6.8229,-6.8278,-6.8312,-6.8317,-6.8326,-6.8279,-6.8356,-6.85,-6.8516,-6.834,-6.8338,-6.8336,0,-6.7323,-6.7475,-6.7588,-6.7631,-6.7745,-6.7797,-6.7847,-6.7928,-6.7986,-6.8071,-6.8108,-6.8203,-6.8254,-6.8328,-6.8374,-6.8342,-6.8511,-6.8475,-6.8536,-6.8534,-6.8567,-6.8563,-6.8718,-6.8604,-6.8603,-6.8603,-6.8603,0,-6.7442,-6.7535,-6.7615,-6.7684,-6.779,-6.7839,-6.7942,-6.7993,-6.8066,-6.8145,-6.817,-6.8243,-6.8302,-6.8384,-6.8422,-6.8532,-6.8556,-6.8581,-6.8589,-6.8577,-6.8573,-6.8607,-6.8599,-6.8608,-6.8607,-6.8606,-6.8605,0,-6.7521,-6.7579,-6.7703,-6.7802,-6.7829,-6.7903,-6.7988,-6.8055,-6.8103,-6.8203,-6.8229,-6.8303,-6.8401,-6.8456,-6.8579,-6.8605,-6.8727,-6.8733,-6.8698,-6.8701,-6.8758,-6.8751,-6.8937,-6.8964,-6.8834,-6.8835,-6.8836,0,-6.7592,-6.7664,-6.7772,-6.7827,-6.7878,-6.7967,-6.8027,-6.808,-6.8141,-6.8245,-6.83,-6.84,-6.8483,-6.8639,-6.8703,-6.8798,-6.8805,-6.8864,-6.8819,-6.8805,-6.8803,-6.8797,-6.8804,-6.887,-6.8871,-6.8872,-6.8873,0,-6.771,-6.7736,-6.7821,-6.7918,-6.7989,-6.8068,-6.8146,-6.819,-6.8255,-6.8323,-6.8425,-6.8489,-6.8617,-6.8715,-6.8816,-6.8868,-6.8881,-6.8888,-6.8906,-6.8892,-6.8868,-6.888,-6.8716,-6.8882,-6.8881,-6.888,-6.888,-6.8879,-6.7786,-6.7852,-6.7938,-6.8033,-6.8098,-6.8171,-6.824,-6.8297,-6.8383,-6.8491,-6.8518,-6.8624,-6.8709,-6.8846,-6.8901,-6.8985,-6.8974,-6.9002,-6.9008,-6.9013,-6.9014,-6.8858,-6.9004,-6.9004,-6.9004,-6.9004,-6.9004,0,-6.7903,-6.7961,-6.8049,-6.8158,-6.8233,-6.8242,-6.833,-6.8392,-6.8485,-6.8564,-6.8646,-6.8763,-6.886,-6.8934,-6.9033,-6.9087,-6.9096,-6.9111,-6.9106,-6.9117,-6.9019,-6.8992,-6.9102,-6.9102,-6.9102,-6.9102,-6.9102,-6.9102,-6.7973,-6.8085,-6.8122,-6.8267,-6.8324,-6.8429,-6.8478,-6.8546,-6.8609,-6.8739,-6.882,-6.8869,-6.8946,-6.9052,-6.9142,-6.9161,-6.9195,-6.9209,-6.9229,-6.9135,-6.9124,-6.9114,-6.9088,-6.9217,-6.9217,-6.932,-6.9321,-6.9322]},{"header":{"parameterUnit":"m.s-1","parameterCategory":1,"la1":30.2991,"la2":30.254,"lo1":-89.0895,"lo2":-89.0444,"dy":0.0017,"dx":0.0017,"nx":28,"ny":28,"refTime":"2025-03-28T21:00:00:Z","depth":0,"parameterNumber":3,"parameterNumberName":"V-component_of_WINDS"},"data":[0,0,0,0,0,0,0,0,0,0,0,0,0,0,0,0,0,0,0,0,0,0,0,0,0,0,0,0,0,0,0,0,0,0,0,0,0,0,0,0,0,0,0,0,0,0,0,0,0,0,0,0,0,0,0,0,0,0,3.9819,3.982,0,3.989,3.9891,3.9892,3.991,3.991,3.9909,3.9909,3.9976,3.9978,3.998,0,0,0,0,0,0,0,0,0,0,0,0,0,3.9698,3.97,3.9819,3.982,3.9821,3.989,3.9891,3.9892,3.991,3.991,3.9909,3.9909,3.9975,3.9978,3.9981,0,0,0,0,0,0,0,0,0,0,0,0,0,3.9758,3.9701,3.9819,3.9839,3.9841,3.989,3.9891,3.9892,3.991,3.991,3.9909,3.9908,3.9975,3.9978,3.9981,4.0014,0,0,3.9991,3.9992,0,0,0,0,0,0,0,0,3.9754,3.9762,3.9835,3.9837,3.984,3.9891,3.9873,3.9933,3.991,3.9884,3.9909,3.9908,3.9948,3.9953,3.9968,4.0017,4.002,3.9991,3.9993,3.9995,3.9996,0,0,0,0,0,0,0,3.975,3.9759,3.9847,3.9836,3.9839,3.9843,3.9851,3.9884,3.9918,3.9886,3.9888,3.9896,3.9949,3.9965,3.9969,4.0021,3.9991,3.9994,3.9996,3.9997,4.0103,4.0104,0,0,0,0,0,0,3.9743,3.9755,3.9845,3.9849,3.9795,3.9846,3.9855,3.9875,3.9918,3.9924,3.9896,3.9897,3.9959,3.9966,3.9972,4.0015,3.9995,3.9998,4.0,4.0102,4.0103,4.0104,0,0,0,0,0,0,3.974,3.9751,3.9842,3.9803,3.9815,3.9849,3.9871,3.9877,3.9892,3.9926,3.9932,3.9906,3.9959,3.9967,4.0004,4.0017,3.9999,4.0002,4.0101,4.0103,4.0104,4.01,0,0,0,0,0,0,3.9737,3.975,3.9763,3.9803,3.9817,3.9874,3.9872,3.9879,3.9898,3.9899,3.9937,3.9942,3.9959,3.9999,4.0007,4.0022,4.0005,4.01,4.0102,4.0103,4.0099,4.0101,4.0102,0,0,0,0,0,3.9732,3.9757,3.9763,3.9774,3.9834,3.9875,3.9882,3.9903,3.9899,3.9913,3.9935,3.9941,4.0015,4.0003,4.0012,4.0027,4.0099,4.0101,4.0103,4.0098,4.01,4.0102,0,0,0,0,0,0,3.9715,3.9763,3.977,3.9809,3.9838,3.9878,3.9895,3.9904,3.9933,3.9933,3.9956,3.9964,4.0,4.0017,4.0003,4.0063,4.0057,4.0061,4.005,4.0052,4.0054,4.0049,4.0007,0,0,0,0,0,3.9716,3.9746,3.9786,3.9816,3.9831,3.986,3.9879,3.9893,3.9923,3.9934,3.9959,3.9987,4.0017,4.0035,4.0064,4.0102,4.0111,4.0117,4.0119,4.012,4.0123,4.0146,4.015,4.011,4.011,4.011,0,0,3.9718,3.9748,3.9765,3.9814,3.9838,3.9868,3.987,3.9901,3.9924,3.9938,3.9976,3.9995,4.0028,4.0066,4.0083,4.0081,4.0136,4.0123,4.0123,4.0126,4.0148,4.0152,4.0155,4.0112,4.0111,4.0111,0,0,3.9736,3.9762,3.9791,3.9816,3.9854,3.9874,3.9881,3.9921,3.9935,3.9973,3.9986,4.0012,4.0062,4.0086,4.0104,4.0136,4.0143,4.0145,4.0154,4.0176,4.0179,4.0182,4.0194,4.0198,4.0148,4.0148,4.0148,0,3.9733,3.978,3.9805,3.9837,3.9858,3.9876,3.9906,3.9928,3.9972,3.9987,3.9984,4.005,4.0073,4.0118,4.0126,4.014,4.0149,4.014,4.0177,4.018,4.0183,4.0195,4.0199,4.0148,4.0148,4.0148,4.0148,0,3.9775,3.9808,3.9827,3.9873,3.9896,3.9927,3.9955,3.9977,3.9989,4.001,4.0049,4.0078,4.0115,4.0126,4.0137,4.0173,4.0171,4.0172,4.0167,4.0186,4.0198,4.0203,4.0148,4.0148,4.0148,4.0148,0,0,3.9783,3.9844,3.9851,3.9873,3.9917,3.9942,3.9974,4.0012,4.003,4.0061,4.0088,4.0132,4.0135,4.0156,4.017,4.019,4.0215,4.0189,4.019,4.0194,4.0258,4.0257,4.0261,4.022,4.0221,4.0222,4.0255,0,3.9808,3.9867,3.9892,3.9939,3.997,3.9989,4.0017,4.0047,4.0068,4.0097,4.0119,4.015,4.0151,4.0164,4.0184,4.0208,4.0228,4.0205,4.0246,4.0247,4.0237,4.0267,4.0266,4.0296,4.026,4.0261,4.0261,0,3.9844,3.9878,3.993,3.9973,3.9987,4.0012,4.005,4.0078,4.0112,4.0126,4.0152,4.0166,4.02,4.0193,4.0241,4.0225,4.0243,4.0257,4.0259,4.0263,4.0255,4.0273,4.0305,4.031,4.0268,4.0268,4.0267,0,3.9846,3.9904,3.9944,3.9962,4.0013,4.003,4.0052,4.0086,4.0109,4.0142,4.0156,4.0192,4.0211,4.0238,4.0262,4.0255,4.0308,4.0303,4.032,4.032,4.033,4.0329,4.0366,4.0341,4.0341,4.0341,4.0341,0,3.9871,3.9902,3.9946,3.9969,4.0005,4.0033,4.0068,4.009,4.0122,4.015,4.0168,4.0194,4.0224,4.0254,4.0272,4.0309,4.0318,4.033,4.0334,4.0328,4.0327,4.034,4.0339,4.0342,4.0342,4.0342,4.0341,0,3.9878,3.9909,3.9953,3.9999,4.0012,4.0036,4.0075,4.0099,4.0122,4.0158,4.0168,4.0203,4.024,4.0266,4.0312,4.0325,4.0365,4.037,4.0354,4.0357,4.0373,4.0371,4.042,4.0428,4.0397,4.0398,4.0398,0,3.9892,3.9917,3.9967,3.9989,4.0012,4.0046,4.007,4.0099,4.0122,4.0166,4.0185,4.0223,4.0256,4.0313,4.0342,4.0378,4.0383,4.0398,4.0389,4.0383,4.0385,4.0383,4.0386,4.0399,4.0399,4.04,4.04,0,3.9914,3.9929,3.9964,4.0005,4.0034,4.0066,4.0099,4.0116,4.015,4.0176,4.0216,4.0241,4.029,4.0328,4.0368,4.0389,4.04,4.0403,4.0409,4.0403,4.0394,4.04,4.0359,4.0401,4.0401,4.0401,4.0401,4.0401,3.9926,3.995,3.9991,4.0029,4.0058,4.0089,4.0115,4.0142,4.0176,4.022,4.0235,4.0276,4.0312,4.0367,4.0389,4.0421,4.042,4.0428,4.0431,4.0433,4.0433,4.0389,4.0428,4.0428,4.0428,4.0428,4.0428,0,3.995,3.9978,4.0013,4.0061,4.0092,4.0102,4.014,4.0165,4.0201,4.0235,4.0268,4.0313,4.0351,4.0384,4.0424,4.0443,4.0449,4.0452,4.0451,4.0456,4.0431,4.0422,4.0447,4.0447,4.0447,4.0447,4.0447,4.0447,3.9966,4.0009,4.0029,4.0085,4.0112,4.0154,4.0175,4.0204,4.0232,4.0283,4.0316,4.0338,4.0372,4.0414,4.045,4.0459,4.0472,4.0474,4.0484,4.046,4.0457,4.0455,4.0447,4.0477,4.0477,4.0507,4.0507,4.0508]}]]